Juliana Airport, Sint Maarten

2:30 AM AST on September 25, 2017 (GMT -0400)
Princess Juliana International

Weather History for TNCM - February, 2012

Change the Weather History Date:

Wednesday, February 8, 2012

  Actual Average Record
Temperature  
Mean Temperature 79 °F -  
Max Temperature 82 °F 81 °F 86 °F (1998)
Min Temperature 76 °F 72 °F 71 °F (1999)
Cooling Degree Days 14    
Growing Degree Days 29 (Base 50)    
Moisture  
Dew Point 69 °F    
Average Humidity 70    
Maximum Humidity 78    
Minimum Humidity 58    
Precipitation  
Precipitation 0.02 in 0.06 in - ()
Sea Level Pressure  
Sea Level Pressure 29.99 in    
Wind  
Wind Speed 11 mph ()    
Max Wind Speed 15 mph    
Max Gust Speed -    
Visibility 7.2 miles    
Events Rain    
Averages and records for this station are not official NWS values.
T = Trace of Precipitation, MM = Missing Value Source: Averaged Metar Reports

Daily Weather History Graph

Daily Weather History Graph

Search for Another Location

Airport or City:

Trip Planner

Search our weather history database for the weather conditions in past years. The results will help you decide how hot, cold, wet, or windy it might be!

Date:

Astronomy

Feb. 08, 2012 Rise Set
Actual Time 6:43 AM AST 6:10 PM AST
Civil Twilight 6:20 AM AST 6:32 PM AST
Nautical Twilight 5:54 AM AST 6:58 PM AST
Astronomical Twilight 5:29 AM AST 7:24 PM AST
Moon 7:05 PM AST (2/8) 6:57 AM AST (2/8)
Length of Visible Light 12h 12m
Length of Day
11h 27m
Full, 99% of the Moon is Illuminated
Feb 8
Full
Feb 14
Last Quarter
Feb 21
New
Feb 29
First Quarter
Mar 8
Full

Hourly Weather History & Observations

Time (AST) Temp. Heat Index Dew Point Humidity Pressure Visibility Wind Dir Wind Speed Gust Speed Precip Events Conditions
12:00 AM 77.0 °F - 68.0 °F 74% 30.01 in 6.2 mi ESE 12.7 mph - N/A   Scattered Clouds
1:00 AM 77.0 °F - 68.0 °F 74% 30.01 in 6.2 mi ESE 11.5 mph - N/A   Scattered Clouds
2:00 AM 77 °F - 68 °F 67% 29.99 in 7 mi East 13.8 mph - - Rain Light Rain Showers
2:00 AM 77.0 °F - 68.0 °F 74% 29.98 in 6.2 mi East 15.0 mph - N/A Rain Light Rain Showers
3:00 AM 77.0 °F - 68.0 °F 74% 29.95 in 6.2 mi East 15.0 mph - N/A   Partly Cloudy
4:00 AM 77.0 °F - 68.0 °F 74% 29.95 in 6.2 mi East 15.0 mph - N/A   Partly Cloudy
5:00 AM 76 °F - 67 °F 68% 29.96 in 19 mi SE 12.7 mph - -   Partly Cloudy
5:00 AM 77.0 °F - 68.0 °F 74% 29.95 in 6.2 mi ESE 12.7 mph - N/A   Partly Cloudy
6:00 AM 77.0 °F - 68.0 °F 74% 29.95 in 6.2 mi ESE 11.5 mph - N/A   Partly Cloudy
7:00 AM 77.0 °F - 68.0 °F 74% 29.98 in 6.2 mi East 11.5 mph - N/A   Partly Cloudy
8:00 AM 77 °F - 68 °F 66% 30.02 in 28 mi East 9.2 mph - -  
8:00 AM 77.0 °F - 68.0 °F 74% 30.01 in 6.2 mi East 9.2 mph - N/A   Scattered Clouds
9:00 AM 78.8 °F - 68.0 °F 69% 30.01 in 6.2 mi East 10.4 mph - N/A   Scattered Clouds
10:00 AM 80.6 °F 83.9 °F 69.8 °F 70% 30.04 in 6.2 mi East 10.4 mph - N/A   Scattered Clouds
11:00 AM 80 °F - 69 °F 60% 30.06 in 28 mi ESE 10.4 mph - -   Scattered Clouds
11:00 AM 80.6 °F 83.2 °F 68.0 °F 65% 30.04 in 6.2 mi ESE 10.4 mph - N/A   Partly Cloudy
12:00 PM 82.4 °F 84.6 °F 66.2 °F 58% 30.04 in 6.2 mi East 12.7 mph - N/A   Partly Cloudy
1:00 PM 82.4 °F 85.4 °F 68.0 °F 62% 30.01 in 6.2 mi East 12.7 mph - N/A   Partly Cloudy
2:00 PM 81 °F - 69 °F 58% 29.99 in 28 mi East 10.4 mph - -   Scattered Clouds
2:00 PM 80.6 °F 83.2 °F 68.0 °F 65% 29.98 in 6.2 mi East 11.5 mph - N/A   Partly Cloudy
3:00 PM 80.6 °F 83.2 °F 68.0 °F 65% 29.95 in 6.2 mi East 13.8 mph - N/A   Scattered Clouds
4:00 PM 78.8 °F - 69.8 °F 74% 29.95 in 6.2 mi East 12.7 mph - N/A   Scattered Clouds
5:00 PM 80 °F - 69 °F 63% 29.96 in 25 mi ESE 11.5 mph - -   Partly Cloudy
5:00 PM 78.8 °F - 69.8 °F 74% 29.95 in 6.2 mi East 13.8 mph - N/A   Scattered Clouds
6:00 PM 78.8 °F - 69.8 °F 74% 29.95 in 6.2 mi East 11.5 mph - N/A   Mostly Cloudy
7:00 PM 78.8 °F - 69.8 °F 74% 29.95 in 6.2 mi East 11.5 mph - N/A   Scattered Clouds
8:00 PM 78 °F - 69 °F 67% 29.99 in 25 mi ESE 8.1 mph - -   Scattered Clouds
8:00 PM 77.0 °F - 69.8 °F 78% 29.98 in 6.2 mi ESE 8.1 mph - N/A   Partly Cloudy
9:00 PM 77.0 °F - 68.0 °F 74% 29.98 in 6.2 mi East 9.2 mph - N/A   Partly Cloudy
10:00 PM 77.0 °F - 69.8 °F 78% 30.01 in 6.2 mi East 10.4 mph - N/A   Partly Cloudy
11:00 PM 78 °F - 69 °F 68% 30.01 in 19 mi ESE 8.1 mph - - Rain Light Rain Showers
11:00 PM 77.0 °F - 69.8 °F 78% 30.01 in 6.2 mi ESE 8.1 mph - N/A Rain Light Rain Showers